Year,Month,Day,Hour,Minute,Value (Times are PST for temperature in C)
2013,09,26,00,00,7.60
2013,09,26,00,01,7.70
2013,09,26,00,02,7.70
2013,09,26,00,03,7.70
2013,09,26,00,04,7.70
2013,09,26,00,05,7.60
2013,09,26,00,06,7.60
2013,09,26,00,07,7.60
2013,09,26,00,08,7.60
2013,09,26,00,09,7.60
2013,09,26,00,10,7.60
2013,09,26,00,11,7.50
2013,09,26,00,12,7.50
2013,09,26,00,13,7.50
2013,09,26,00,14,7.40
2013,09,26,00,15,7.40
2013,09,26,00,16,7.40
2013,09,26,00,17,7.40
2013,09,26,00,18,7.40
2013,09,26,00,19,7.40
2013,09,26,00,20,7.40
2013,09,26,00,21,7.30
2013,09,26,00,22,7.30
2013,09,26,00,23,7.30
2013,09,26,00,24,7.30
2013,09,26,00,25,7.30
2013,09,26,00,26,7.30
2013,09,26,00,27,7.30
2013,09,26,00,28,7.30
2013,09,26,00,29,7.30
2013,09,26,00,30,7.20
2013,09,26,00,31,7.20
2013,09,26,00,32,7.20
2013,09,26,00,33,7.20
2013,09,26,00,34,7.20
2013,09,26,00,35,7.20
2013,09,26,00,36,7.20
2013,09,26,00,37,7.20
2013,09,26,00,38,7.20
2013,09,26,00,39,7.20
2013,09,26,00,40,7.20
2013,09,26,00,41,7.20
2013,09,26,00,42,7.20
2013,09,26,00,43,7.20
2013,09,26,00,44,7.20
2013,09,26,00,45,7.20
2013,09,26,00,46,7.10
2013,09,26,00,47,7.10
2013,09,26,00,48,7.10
2013,09,26,00,49,7.10
2013,09,26,00,50,7.10
2013,09,26,00,51,7.10
2013,09,26,00,52,7.10
2013,09,26,00,53,7.00
2013,09,26,00,54,7.00
2013,09,26,00,55,7.00
2013,09,26,00,56,7.00
2013,09,26,00,57,7.00
2013,09,26,00,58,6.90
2013,09,26,00,59,6.90
2013,09,26,01,00,6.90
2013,09,26,01,01,6.90
2013,09,26,01,02,6.90
2013,09,26,01,03,6.90
2013,09,26,01,04,6.90
2013,09,26,01,05,6.80
2013,09,26,01,06,6.80
2013,09,26,01,07,6.80
2013,09,26,01,08,6.80
2013,09,26,01,09,6.80
2013,09,26,01,10,6.80
2013,09,26,01,11,6.80
2013,09,26,01,12,6.80
2013,09,26,01,13,6.80
2013,09,26,01,14,6.80
2013,09,26,01,15,6.80
2013,09,26,01,16,6.80
2013,09,26,01,17,6.70
2013,09,26,01,18,6.70
2013,09,26,01,19,6.70
2013,09,26,01,20,6.70
2013,09,26,01,21,6.70
2013,09,26,01,22,6.70
2013,09,26,01,23,6.70
2013,09,26,01,24,6.70
2013,09,26,01,25,6.70
2013,09,26,01,26,6.70
2013,09,26,01,27,6.70
2013,09,26,01,28,6.70
2013,09,26,01,29,6.70
2013,09,26,01,30,6.70
2013,09,26,01,31,6.70
2013,09,26,01,32,6.70
2013,09,26,01,33,6.70
2013,09,26,01,34,6.70
2013,09,26,01,35,6.60
2013,09,26,01,36,6.60
2013,09,26,01,37,6.60
2013,09,26,01,38,6.60
2013,09,26,01,39,6.60
2013,09,26,01,40,6.60
2013,09,26,01,41,6.60
2013,09,26,01,42,6.60
2013,09,26,01,43,6.60
2013,09,26,01,44,6.50
2013,09,26,01,45,6.50
2013,09,26,01,46,6.50
2013,09,26,01,47,6.50
2013,09,26,01,48,6.50
2013,09,26,01,49,6.40
2013,09,26,01,50,6.40
2013,09,26,01,51,6.40
2013,09,26,01,52,6.40
2013,09,26,01,53,6.40
2013,09,26,01,54,6.40
2013,09,26,01,55,6.40
2013,09,26,01,56,6.40
2013,09,26,01,57,6.30
2013,09,26,01,58,6.30
2013,09,26,01,59,6.30
2013,09,26,02,00,6.30
2013,09,26,02,01,6.30
2013,09,26,02,02,6.30
2013,09,26,02,03,6.30
2013,09,26,02,04,6.30
2013,09,26,02,05,6.30
2013,09,26,02,06,6.20
2013,09,26,02,07,6.20
2013,09,26,02,08,6.20
2013,09,26,02,09,6.20
2013,09,26,02,10,6.20
2013,09,26,02,11,6.20
2013,09,26,02,12,6.20
2013,09,26,02,13,6.10
2013,09,26,02,14,6.10
2013,09,26,02,15,6.10
2013,09,26,02,16,6.10
2013,09,26,02,17,6.10
2013,09,26,02,18,6.10
2013,09,26,02,19,6.10
2013,09,26,02,20,6.10
2013,09,26,02,21,6.10
2013,09,26,02,22,6.10
2013,09,26,02,23,6.10
2013,09,26,02,24,6.10
2013,09,26,02,25,6.10
2013,09,26,02,26,6.10
2013,09,26,02,27,6.00
2013,09,26,02,28,6.00
2013,09,26,02,29,6.00
2013,09,26,02,30,6.00
2013,09,26,02,31,6.00
2013,09,26,02,32,6.00
2013,09,26,02,33,6.00
2013,09,26,02,34,6.00
2013,09,26,02,35,6.00
2013,09,26,02,36,5.90
2013,09,26,02,37,5.90
2013,09,26,02,38,5.90
2013,09,26,02,39,5.90
2013,09,26,02,40,5.90
2013,09,26,02,41,5.90
2013,09,26,02,42,5.90
2013,09,26,02,43,5.90
2013,09,26,02,44,5.90
2013,09,26,02,45,5.80
2013,09,26,02,46,5.80
2013,09,26,02,47,5.80
2013,09,26,02,48,5.80
2013,09,26,02,49,5.80
2013,09,26,02,50,5.80
2013,09,26,02,51,5.80
2013,09,26,02,52,5.80
2013,09,26,02,53,5.80
2013,09,26,02,54,5.80
2013,09,26,02,55,5.80
2013,09,26,02,56,5.80
2013,09,26,02,57,5.80
2013,09,26,02,58,5.80
2013,09,26,02,59,5.80
2013,09,26,03,00,5.80
2013,09,26,03,01,5.80
2013,09,26,03,02,5.80
2013,09,26,03,06,5.80
2013,09,26,03,07,5.80
2013,09,26,03,08,5.80
2013,09,26,03,09,5.80
2013,09,26,03,10,5.70
2013,09,26,03,11,5.70
2013,09,26,03,12,5.70
2013,09,26,03,13,5.70
2013,09,26,03,14,5.70
2013,09,26,03,15,5.70
2013,09,26,03,16,5.70
2013,09,26,03,17,5.70
2013,09,26,03,18,5.70
2013,09,26,03,19,5.70
2013,09,26,03,20,5.70
2013,09,26,03,21,5.70
2013,09,26,03,22,5.60
2013,09,26,03,23,5.60
2013,09,26,03,24,5.60
2013,09,26,03,25,5.60
2013,09,26,03,26,5.60
2013,09,26,03,27,5.60
2013,09,26,03,28,5.60
2013,09,26,03,29,5.60
2013,09,26,03,30,5.60
2013,09,26,03,31,5.60
2013,09,26,03,32,5.60
2013,09,26,03,33,5.60
2013,09,26,03,34,5.50
2013,09,26,03,35,5.50
2013,09,26,03,36,5.50
2013,09,26,03,37,5.50
2013,09,26,03,38,5.50
2013,09,26,03,39,5.50
2013,09,26,03,40,5.50
2013,09,26,03,41,5.50
2013,09,26,03,42,5.50
2013,09,26,03,43,5.40
2013,09,26,03,44,5.40
2013,09,26,03,45,5.40
2013,09,26,03,46,5.40
2013,09,26,03,47,5.40
2013,09,26,03,48,5.40
2013,09,26,03,49,5.40
2013,09,26,03,50,5.40
2013,09,26,03,51,5.40
2013,09,26,03,52,5.40
2013,09,26,03,53,5.40
2013,09,26,03,54,5.40
2013,09,26,03,55,5.40
2013,09,26,03,56,5.40
2013,09,26,03,57,5.40
2013,09,26,03,58,5.30
2013,09,26,03,59,5.30
2013,09,26,04,00,5.30
2013,09,26,04,01,5.30
2013,09,26,04,02,5.30
2013,09,26,04,03,5.30
2013,09,26,04,04,5.30
2013,09,26,04,05,5.30
2013,09,26,04,06,5.20
2013,09,26,04,07,5.20
2013,09,26,04,08,5.20
2013,09,26,04,09,5.20
2013,09,26,04,10,5.20
2013,09,26,04,11,5.20
2013,09,26,04,12,5.20
2013,09,26,04,13,5.20
2013,09,26,04,14,5.20
2013,09,26,04,15,5.10
2013,09,26,04,16,5.10
2013,09,26,04,17,5.10
2013,09,26,04,18,5.10
2013,09,26,04,19,5.10
2013,09,26,04,20,5.10
2013,09,26,04,21,5.10
2013,09,26,04,22,5.10
2013,09,26,04,23,5.10
2013,09,26,04,24,5.10
2013,09,26,04,25,5.00
2013,09,26,04,26,5.00
2013,09,26,04,27,5.00
2013,09,26,04,28,5.00
2013,09,26,04,29,5.00
2013,09,26,04,30,5.00
2013,09,26,04,31,5.00
2013,09,26,04,32,5.00
2013,09,26,04,33,4.90
2013,09,26,04,34,4.90
2013,09,26,04,35,4.90
2013,09,26,04,36,4.90
2013,09,26,04,37,4.90
2013,09,26,04,38,4.90
2013,09,26,04,39,4.90
2013,09,26,04,40,4.90
2013,09,26,04,41,4.90
2013,09,26,04,42,4.90
2013,09,26,04,43,4.90
2013,09,26,04,44,4.90
2013,09,26,04,45,4.90
2013,09,26,04,46,4.90
2013,09,26,04,47,4.90
2013,09,26,04,48,4.90
2013,09,26,04,49,4.90
2013,09,26,04,50,4.90
2013,09,26,04,51,4.90
2013,09,26,04,52,4.90
2013,09,26,04,53,4.90
2013,09,26,04,54,4.90
2013,09,26,04,55,4.90
2013,09,26,04,56,4.90
2013,09,26,04,57,4.90
2013,09,26,04,58,4.90
2013,09,26,04,59,4.90
2013,09,26,05,00,4.80
2013,09,26,05,01,4.80
2013,09,26,05,02,4.80
2013,09,26,05,03,4.80
2013,09,26,05,04,4.80
2013,09,26,05,05,4.80
2013,09,26,05,06,4.80
2013,09,26,05,07,4.80
2013,09,26,05,08,4.80
2013,09,26,05,09,4.80
2013,09,26,05,10,4.80
2013,09,26,05,11,4.80
2013,09,26,05,12,4.80
2013,09,26,05,13,4.80
2013,09,26,05,14,4.80
2013,09,26,05,15,4.80
2013,09,26,05,16,4.80
2013,09,26,05,17,4.80
2013,09,26,05,18,4.80
2013,09,26,05,19,4.80
2013,09,26,05,20,4.80
2013,09,26,05,21,4.80
2013,09,26,05,22,4.80
2013,09,26,05,23,4.80
2013,09,26,05,24,4.80
2013,09,26,05,25,4.80
2013,09,26,05,26,4.80
2013,09,26,05,27,4.80
2013,09,26,05,28,4.80
2013,09,26,05,29,4.80
2013,09,26,05,30,4.80
2013,09,26,05,31,4.80
2013,09,26,05,32,4.80
2013,09,26,05,33,4.80
2013,09,26,05,34,4.80
2013,09,26,05,35,4.70
2013,09,26,05,36,4.70
2013,09,26,05,37,4.70
2013,09,26,05,38,4.70
2013,09,26,05,39,4.70
2013,09,26,05,40,4.70
2013,09,26,05,41,4.70
2013,09,26,05,42,4.70
2013,09,26,05,43,4.70
2013,09,26,05,44,4.70
2013,09,26,05,45,4.70
2013,09,26,05,46,4.60
2013,09,26,05,47,4.60
2013,09,26,05,48,4.60
2013,09,26,05,49,4.60
2013,09,26,05,50,4.60
2013,09,26,05,51,4.60
2013,09,26,05,52,4.50
2013,09,26,05,53,4.50
2013,09,26,05,54,4.50
2013,09,26,05,55,4.50
2013,09,26,05,56,4.50
2013,09,26,05,57,4.40
2013,09,26,05,58,4.40
2013,09,26,05,59,4.40
2013,09,26,06,00,4.40
2013,09,26,06,01,4.40
2013,09,26,06,02,4.40
2013,09,26,06,03,4.40
2013,09,26,06,04,4.40
2013,09,26,06,05,4.40
2013,09,26,06,06,4.40
2013,09,26,06,07,4.40
2013,09,26,06,08,4.40
2013,09,26,06,09,4.40
2013,09,26,06,10,4.40
2013,09,26,06,11,4.40
2013,09,26,06,12,4.40
2013,09,26,06,13,4.40
2013,09,26,06,14,4.40
2013,09,26,06,15,4.40
2013,09,26,06,16,4.40
2013,09,26,06,17,4.40
2013,09,26,06,18,4.40
2013,09,26,06,19,4.40
2013,09,26,06,20,4.40
2013,09,26,06,21,4.40
2013,09,26,06,22,4.40
2013,09,26,06,23,4.40
2013,09,26,06,24,4.40
2013,09,26,06,25,4.40
2013,09,26,06,26,4.40
2013,09,26,06,27,4.40
2013,09,26,06,28,4.40
2013,09,26,06,29,4.40
2013,09,26,06,30,4.40
2013,09,26,06,31,4.40
2013,09,26,06,32,4.40
2013,09,26,06,33,4.40
2013,09,26,06,34,4.40
2013,09,26,06,35,4.40
2013,09,26,06,36,4.40
2013,09,26,06,37,4.40
2013,09,26,06,38,4.40
2013,09,26,06,39,4.40
2013,09,26,06,40,4.40
2013,09,26,06,41,4.40
2013,09,26,06,42,4.40
2013,09,26,06,43,4.40
2013,09,26,06,44,4.40
2013,09,26,06,45,4.40
2013,09,26,06,46,4.40
2013,09,26,06,47,4.40
2013,09,26,06,48,4.40
2013,09,26,06,49,4.40
2013,09,26,06,50,4.40
2013,09,26,06,51,4.40
2013,09,26,06,52,4.40
2013,09,26,06,53,4.40
2013,09,26,06,54,4.40
2013,09,26,06,55,4.30
2013,09,26,06,56,4.30
2013,09,26,06,57,4.30
2013,09,26,06,58,4.30
2013,09,26,06,59,4.30
2013,09,26,07,00,4.30
2013,09,26,07,01,4.30
2013,09,26,07,02,4.30
2013,09,26,07,03,4.30
2013,09,26,07,04,4.30
2013,09,26,07,05,4.30
2013,09,26,07,06,4.30
2013,09,26,07,07,4.30
2013,09,26,07,08,4.30
2013,09,26,07,09,4.30
2013,09,26,07,10,4.30
2013,09,26,07,11,4.30
2013,09,26,07,12,4.30
2013,09,26,07,13,4.20
2013,09,26,07,14,4.20
2013,09,26,07,15,4.20
2013,09,26,07,16,4.20
2013,09,26,07,17,4.20
2013,09,26,07,18,4.20
2013,09,26,07,19,4.20
2013,09,26,07,20,4.20
2013,09,26,07,21,4.20
2013,09,26,07,22,4.20
2013,09,26,07,23,4.20
2013,09,26,07,24,4.20
2013,09,26,07,25,4.20
2013,09,26,07,26,4.20
2013,09,26,07,27,4.20
2013,09,26,07,28,4.20
2013,09,26,07,29,4.20
2013,09,26,07,30,4.20
2013,09,26,07,31,4.20
2013,09,26,07,32,4.20
2013,09,26,07,33,4.20
2013,09,26,07,34,4.20
2013,09,26,07,35,4.20
2013,09,26,07,36,4.20
2013,09,26,07,37,4.20
2013,09,26,07,38,4.20
2013,09,26,07,39,4.20
2013,09,26,07,40,4.20
2013,09,26,07,41,4.20
2013,09,26,07,42,4.20
2013,09,26,07,43,4.20
2013,09,26,07,44,4.20
2013,09,26,07,45,4.20
2013,09,26,07,46,4.20
2013,09,26,07,47,4.20
2013,09,26,07,48,4.20
2013,09,26,07,49,4.20
2013,09,26,07,50,4.20
2013,09,26,07,51,4.20
2013,09,26,07,52,4.20
2013,09,26,07,53,4.20
2013,09,26,07,54,4.20
2013,09,26,07,55,4.20
2013,09,26,07,56,4.20
2013,09,26,07,57,4.20
2013,09,26,07,58,4.20
2013,09,26,07,59,4.20
2013,09,26,08,00,4.30
2013,09,26,08,01,4.30
2013,09,26,08,02,4.30
2013,09,26,08,03,4.30
2013,09,26,08,04,4.30
2013,09,26,08,05,4.30
2013,09,26,08,06,4.30
2013,09,26,08,07,4.30
2013,09,26,08,08,4.30
2013,09,26,08,09,4.30
2013,09,26,08,10,4.30
2013,09,26,08,11,4.30
2013,09,26,08,12,4.40
2013,09,26,08,13,4.40
2013,09,26,08,14,4.50
2013,09,26,08,15,4.50
2013,09,26,08,16,4.50
2013,09,26,08,17,4.50
2013,09,26,08,18,4.60
2013,09,26,08,19,4.60
2013,09,26,08,20,4.60
2013,09,26,08,21,4.60
2013,09,26,08,22,4.60
2013,09,26,08,23,4.60
2013,09,26,08,24,4.70
2013,09,26,08,25,4.70
2013,09,26,08,26,4.70
2013,09,26,08,27,4.70
2013,09,26,08,28,4.70
2013,09,26,08,29,4.70
2013,09,26,08,30,4.80
2013,09,26,08,31,4.80
2013,09,26,08,32,4.80
2013,09,26,08,33,4.90
2013,09,26,08,34,4.90
2013,09,26,08,35,5.00
2013,09,26,08,36,5.00
2013,09,26,08,37,5.10
2013,09,26,08,38,5.10
2013,09,26,08,39,5.10
2013,09,26,08,40,5.10
2013,09,26,08,41,5.20
2013,09,26,08,42,5.20
2013,09,26,08,43,5.20
2013,09,26,08,44,5.30
2013,09,26,08,45,5.30
2013,09,26,08,46,5.40
2013,09,26,08,47,5.40
2013,09,26,08,48,5.40
2013,09,26,08,49,5.50
2013,09,26,08,50,5.50
2013,09,26,08,51,5.50
2013,09,26,08,52,5.60
2013,09,26,08,53,5.60
2013,09,26,08,54,5.60
2013,09,26,08,55,5.70
2013,09,26,08,56,5.70
2013,09,26,08,57,5.70
2013,09,26,08,58,5.70
2013,09,26,08,59,5.80
2013,09,26,09,00,5.80
2013,09,26,09,01,5.80
2013,09,26,09,02,5.90
2013,09,26,09,03,5.90
2013,09,26,09,04,5.90
2013,09,26,09,05,6.00
2013,09,26,09,06,6.00
2013,09,26,09,07,6.00
2013,09,26,09,08,6.10
2013,09,26,09,09,6.10
2013,09,26,09,10,6.20
2013,09,26,09,11,6.20
2013,09,26,09,12,6.20
2013,09,26,09,13,6.30
2013,09,26,09,14,6.30
2013,09,26,09,15,6.30
2013,09,26,09,16,6.30
2013,09,26,09,17,6.40
2013,09,26,09,18,6.40
2013,09,26,09,19,6.40
2013,09,26,09,20,6.40
2013,09,26,09,21,6.40
2013,09,26,09,22,6.50
2013,09,26,09,23,6.50
2013,09,26,09,24,6.50
2013,09,26,09,25,6.60
2013,09,26,09,26,6.60
2013,09,26,09,27,6.70
2013,09,26,09,28,6.70
2013,09,26,09,29,6.70
2013,09,26,09,30,6.80
2013,09,26,09,31,6.80
2013,09,26,09,32,6.80
2013,09,26,09,33,6.90
2013,09,26,09,34,6.90
2013,09,26,09,35,7.00
2013,09,26,09,36,7.00
2013,09,26,09,37,7.10
2013,09,26,09,38,7.10
2013,09,26,09,39,7.20
2013,09,26,09,40,7.20
2013,09,26,09,41,7.20
2013,09,26,09,42,7.30
2013,09,26,09,43,7.40
2013,09,26,09,44,7.50
2013,09,26,09,45,7.50
2013,09,26,09,46,7.60
2013,09,26,09,47,7.70
2013,09,26,09,48,7.80
2013,09,26,09,49,8.00
2013,09,26,09,50,8.10
2013,09,26,09,51,8.20
2013,09,26,09,52,8.30
2013,09,26,09,53,8.40
2013,09,26,09,54,8.50
2013,09,26,09,55,8.50
2013,09,26,09,56,8.60
2013,09,26,09,57,8.70
2013,09,26,09,58,8.80
2013,09,26,09,59,8.80
2013,09,26,10,00,8.90
2013,09,26,10,01,9.00
2013,09,26,10,02,9.00
2013,09,26,10,03,9.10
2013,09,26,10,04,9.20
2013,09,26,10,05,9.30
2013,09,26,10,06,9.40
2013,09,26,10,07,9.60
2013,09,26,10,08,9.60
2013,09,26,10,09,9.70
2013,09,26,10,10,9.90
2013,09,26,10,11,10.00
2013,09,26,10,12,10.00
2013,09,26,10,13,10.10
2013,09,26,10,14,10.10
2013,09,26,10,15,10.20
2013,09,26,10,16,10.30
2013,09,26,10,17,10.40
2013,09,26,10,18,10.50
2013,09,26,10,19,10.60
2013,09,26,10,20,10.70
2013,09,26,10,21,10.80
2013,09,26,10,22,10.80
2013,09,26,10,23,10.90
2013,09,26,10,24,11.00
2013,09,26,10,25,11.10
2013,09,26,10,26,11.10
2013,09,26,10,27,11.20
2013,09,26,10,28,11.30
2013,09,26,10,29,11.30
2013,09,26,10,30,11.40
2013,09,26,10,31,11.40
2013,09,26,10,32,11.50
2013,09,26,10,33,11.60
2013,09,26,10,34,11.60
2013,09,26,10,35,11.70
2013,09,26,10,36,11.80
2013,09,26,10,37,11.80
2013,09,26,10,38,11.90
2013,09,26,10,39,11.90
2013,09,26,10,40,12.00
2013,09,26,10,41,12.00
2013,09,26,10,42,12.10
2013,09,26,10,43,12.10
2013,09,26,10,44,12.20
2013,09,26,10,45,12.30
2013,09,26,10,46,12.30
2013,09,26,10,47,12.30
2013,09,26,10,48,12.30
2013,09,26,10,49,12.40
2013,09,26,10,50,12.40
2013,09,26,10,51,12.40
2013,09,26,10,52,12.50
2013,09,26,10,53,12.60
2013,09,26,10,54,12.60
2013,09,26,10,55,12.70
2013,09,26,10,56,12.80
2013,09,26,10,57,12.80
2013,09,26,10,58,12.80
2013,09,26,10,59,12.80
2013,09,26,11,00,12.90
2013,09,26,11,01,12.90
2013,09,26,11,02,13.00
2013,09,26,11,03,13.00
2013,09,26,11,04,13.00
2013,09,26,11,05,13.00
2013,09,26,11,06,13.10
2013,09,26,11,07,13.10
2013,09,26,11,08,13.10
2013,09,26,11,09,13.10
2013,09,26,11,10,13.00
2013,09,26,11,11,13.00
2013,09,26,11,12,12.90
2013,09,26,11,13,12.90
2013,09,26,11,14,12.90
2013,09,26,11,15,12.90
2013,09,26,11,16,12.80
2013,09,26,11,17,12.80
2013,09,26,11,18,12.80
2013,09,26,11,19,12.80
2013,09,26,11,20,12.80
2013,09,26,11,21,12.80
2013,09,26,11,22,12.90
2013,09,26,11,23,12.90
2013,09,26,11,24,12.90
2013,09,26,11,25,13.00
2013,09,26,11,26,13.00
2013,09,26,11,27,13.10
2013,09,26,11,28,13.10
2013,09,26,11,29,13.20
2013,09,26,11,30,13.20
2013,09,26,11,31,13.20
2013,09,26,11,32,13.20
2013,09,26,11,33,13.20
2013,09,26,11,34,13.30
2013,09,26,11,35,13.30
2013,09,26,11,36,13.30
2013,09,26,11,37,13.40
2013,09,26,11,38,13.40
2013,09,26,11,39,13.40
2013,09,26,11,40,13.40
2013,09,26,11,41,13.40
2013,09,26,11,42,13.40
2013,09,26,11,43,13.40
2013,09,26,11,44,13.50
2013,09,26,11,45,13.50
2013,09,26,11,46,13.50
2013,09,26,11,47,13.60
2013,09,26,11,48,13.70
2013,09,26,11,49,13.70
2013,09,26,11,50,13.80
2013,09,26,11,51,13.80
2013,09,26,11,52,13.80
2013,09,26,11,53,13.90
2013,09,26,11,54,13.90
2013,09,26,11,55,13.90
2013,09,26,11,56,14.00
2013,09,26,11,57,14.00
2013,09,26,11,58,14.10
2013,09,26,11,59,14.10
2013,09,26,12,00,14.20
2013,09,26,12,01,14.20
2013,09,26,12,02,14.20
2013,09,26,12,03,14.20
2013,09,26,12,04,14.20
2013,09,26,12,05,14.30
2013,09,26,12,06,14.30
2013,09,26,12,07,14.40
2013,09,26,12,08,14.50
2013,09,26,12,09,14.50
2013,09,26,12,10,14.60
2013,09,26,12,11,14.70
2013,09,26,12,12,14.70
2013,09,26,12,13,14.70
2013,09,26,12,14,14.70
2013,09,26,12,15,14.70
2013,09,26,12,16,14.80
2013,09,26,12,17,14.80
2013,09,26,12,18,14.80
2013,09,26,12,19,14.80
2013,09,26,12,20,14.90
2013,09,26,12,21,14.90
2013,09,26,12,22,15.00
2013,09,26,12,23,15.00
2013,09,26,12,24,15.00
2013,09,26,12,25,15.00
2013,09,26,12,26,15.00
2013,09,26,12,27,15.00
2013,09,26,12,28,15.00
2013,09,26,12,29,15.00
2013,09,26,12,30,15.10
2013,09,26,12,31,15.20
2013,09,26,12,32,15.20
2013,09,26,12,33,15.30
2013,09,26,12,34,15.30
2013,09,26,12,35,15.30
2013,09,26,12,36,15.30
2013,09,26,12,37,15.40
2013,09,26,12,38,15.40
2013,09,26,12,39,15.40
2013,09,26,12,40,15.40
2013,09,26,12,41,15.40
2013,09,26,12,42,15.50
2013,09,26,12,43,15.50
2013,09,26,12,44,15.60
2013,09,26,12,45,15.60
2013,09,26,12,46,15.60
2013,09,26,12,47,15.60
2013,09,26,12,48,15.60
2013,09,26,12,49,15.60
2013,09,26,12,50,15.60
2013,09,26,12,51,15.60
2013,09,26,12,52,15.60
2013,09,26,12,53,15.60
2013,09,26,12,54,15.60
2013,09,26,12,55,15.70
2013,09,26,12,56,15.70
2013,09,26,12,57,15.70
2013,09,26,12,58,15.70
2013,09,26,12,59,15.80
2013,09,26,13,00,15.80
2013,09,26,13,01,15.90
2013,09,26,13,02,15.90
2013,09,26,13,03,15.90
2013,09,26,13,04,16.00
2013,09,26,13,05,16.00
2013,09,26,13,06,16.10
2013,09,26,13,07,16.10
2013,09,26,13,08,16.20
2013,09,26,13,09,16.20
2013,09,26,13,10,16.20
2013,09,26,13,11,16.20
2013,09,26,13,12,16.30
2013,09,26,13,13,16.30
2013,09,26,13,14,16.40
2013,09,26,13,15,16.50
2013,09,26,13,16,16.60
2013,09,26,13,17,16.60
2013,09,26,13,18,16.70
2013,09,26,13,19,16.70
2013,09,26,13,20,16.70
2013,09,26,13,21,16.70
2013,09,26,13,22,16.70
2013,09,26,13,23,16.80
2013,09,26,13,24,16.80
2013,09,26,13,25,16.80
2013,09,26,13,26,16.90
2013,09,26,13,27,16.90
2013,09,26,13,28,17.00
2013,09,26,13,29,17.00
2013,09,26,13,30,17.00
2013,09,26,13,31,17.10
2013,09,26,13,32,17.10
2013,09,26,13,33,17.00
2013,09,26,13,34,17.00
2013,09,26,13,35,17.00
2013,09,26,13,36,16.90
2013,09,26,13,37,16.90
2013,09,26,13,38,16.90
2013,09,26,13,39,16.90
2013,09,26,13,40,16.80
2013,09,26,13,41,16.80
2013,09,26,13,42,16.80
2013,09,26,13,43,16.80
2013,09,26,13,44,16.80
2013,09,26,13,45,16.80
2013,09,26,13,46,16.80
2013,09,26,13,47,16.80
2013,09,26,13,48,16.80
2013,09,26,13,49,16.80
2013,09,26,13,50,16.90
2013,09,26,13,51,17.00
2013,09,26,13,52,17.00
2013,09,26,13,53,17.10
2013,09,26,13,54,17.20
2013,09,26,13,55,17.30
2013,09,26,13,56,17.30
2013,09,26,13,57,17.30
2013,09,26,13,58,17.40
2013,09,26,13,59,17.40
2013,09,26,14,00,17.40
2013,09,26,14,01,17.40
2013,09,26,14,02,17.40
2013,09,26,14,03,17.40
2013,09,26,14,04,17.50
2013,09,26,14,05,17.50
2013,09,26,14,06,17.60
2013,09,26,14,07,17.60
2013,09,26,14,08,17.70
2013,09,26,14,09,17.70
2013,09,26,14,10,17.70
2013,09,26,14,11,17.80
2013,09,26,14,12,17.80
2013,09,26,14,13,17.80
2013,09,26,14,14,17.90
2013,09,26,14,15,18.00
2013,09,26,14,16,18.10
2013,09,26,14,17,18.10
2013,09,26,14,18,18.20
2013,09,26,14,19,18.20
2013,09,26,14,20,18.20
2013,09,26,14,21,18.20
2013,09,26,14,22,18.20
2013,09,26,14,23,18.20
2013,09,26,14,24,18.20
2013,09,26,14,25,18.20
2013,09,26,14,26,18.10
2013,09,26,14,27,18.10
2013,09,26,14,28,18.10
2013,09,26,14,29,18.10
2013,09,26,14,30,18.10
2013,09,26,14,31,18.10
2013,09,26,14,32,18.10
2013,09,26,14,33,18.20
2013,09,26,14,34,18.20
2013,09,26,14,35,18.30
2013,09,26,14,36,18.30
2013,09,26,14,37,18.30
2013,09,26,14,38,18.30
2013,09,26,14,39,18.30
2013,09,26,14,40,18.30
2013,09,26,14,41,18.30
2013,09,26,14,42,18.40
2013,09,26,14,43,18.40
2013,09,26,14,44,18.40
2013,09,26,14,45,18.40
2013,09,26,14,46,18.40
2013,09,26,14,47,18.40
2013,09,26,14,48,18.50
2013,09,26,14,49,18.50
2013,09,26,14,50,18.50
2013,09,26,14,51,18.50
2013,09,26,14,52,18.50
2013,09,26,14,53,18.50
2013,09,26,14,54,18.50
2013,09,26,14,55,18.60
2013,09,26,14,56,18.60
2013,09,26,14,57,18.60
2013,09,26,14,58,18.60
2013,09,26,14,59,18.60
2013,09,26,15,00,18.60
2013,09,26,15,01,18.60
2013,09,26,15,02,18.60
2013,09,26,15,03,18.50
2013,09,26,15,04,18.50
2013,09,26,15,05,18.40
2013,09,26,15,06,18.30
2013,09,26,15,07,18.30
2013,09,26,15,08,18.30
2013,09,26,15,09,18.30
2013,09,26,15,10,18.30
2013,09,26,15,11,18.30
2013,09,26,15,12,18.30
2013,09,26,15,13,18.30
2013,09,26,15,14,18.30
2013,09,26,15,15,18.30
2013,09,26,15,16,18.30
2013,09,26,15,17,18.30
2013,09,26,15,18,18.30
2013,09,26,15,19,18.30
2013,09,26,15,20,18.30
2013,09,26,15,21,18.30
2013,09,26,15,22,18.30
2013,09,26,15,23,18.30
2013,09,26,15,24,18.30
2013,09,26,15,25,18.30
2013,09,26,15,26,18.20
2013,09,26,15,27,18.20
2013,09,26,15,28,18.20
2013,09,26,15,29,18.10
2013,09,26,15,30,18.10
2013,09,26,15,31,18.10
2013,09,26,15,32,18.00
2013,09,26,15,33,18.00
2013,09,26,15,34,17.90
2013,09,26,15,35,17.90
2013,09,26,15,36,18.00
2013,09,26,15,37,18.00
2013,09,26,15,38,18.00
2013,09,26,15,39,18.00
2013,09,26,15,40,17.90
2013,09,26,15,41,17.90
2013,09,26,15,42,17.90
2013,09,26,15,43,17.90
2013,09,26,15,44,17.90
2013,09,26,15,45,17.90
2013,09,26,15,46,17.90
2013,09,26,15,47,17.90
2013,09,26,15,48,17.90
2013,09,26,15,49,17.90
2013,09,26,15,50,18.00
2013,09,26,15,51,18.10
2013,09,26,15,52,18.10
2013,09,26,15,53,18.10
2013,09,26,15,54,18.10
2013,09,26,15,55,18.10
2013,09,26,15,56,18.10
2013,09,26,15,57,18.10
2013,09,26,15,58,18.20
2013,09,26,15,59,18.20
2013,09,26,16,00,18.10
2013,09,26,16,01,18.10
2013,09,26,16,02,18.10
2013,09,26,16,03,18.10
2013,09,26,16,04,18.10
2013,09,26,16,05,18.10
2013,09,26,16,06,18.10
2013,09,26,16,07,18.10
2013,09,26,16,08,18.10
2013,09,26,16,09,18.10
2013,09,26,16,10,18.10
2013,09,26,16,11,18.10
2013,09,26,16,12,18.10
2013,09,26,16,13,18.10
2013,09,26,16,14,18.10
2013,09,26,16,15,18.00
2013,09,26,16,16,18.00
2013,09,26,16,17,17.90
2013,09,26,16,18,17.90
2013,09,26,16,19,17.90
2013,09,26,16,20,17.80
2013,09,26,16,21,17.80
2013,09,26,16,22,17.80
2013,09,26,16,23,17.80
2013,09,26,16,24,17.80
2013,09,26,16,25,17.80
2013,09,26,16,26,17.80
2013,09,26,16,27,17.80
2013,09,26,16,28,17.80
2013,09,26,16,29,17.90
2013,09,26,16,30,17.90
2013,09,26,16,31,17.90
2013,09,26,16,32,17.80
2013,09,26,16,33,17.80
2013,09,26,16,34,17.90
2013,09,26,16,35,17.90
2013,09,26,16,36,17.90
2013,09,26,16,37,17.90
2013,09,26,16,38,17.90
2013,09,26,16,39,17.90
2013,09,26,16,40,17.90
2013,09,26,16,41,17.90
2013,09,26,16,42,18.00
2013,09,26,16,43,18.00
2013,09,26,16,44,18.00
2013,09,26,16,45,18.00
2013,09,26,16,46,18.10
2013,09,26,16,47,18.10
2013,09,26,16,48,18.10
2013,09,26,16,49,18.10
2013,09,26,16,50,18.10
2013,09,26,16,51,18.10
2013,09,26,16,52,18.10
2013,09,26,16,53,18.10
2013,09,26,16,54,18.10
2013,09,26,16,55,18.10
2013,09,26,16,56,18.10
2013,09,26,16,57,18.10
2013,09,26,16,58,18.00
2013,09,26,16,59,18.00
2013,09,26,17,00,18.00
2013,09,26,17,01,18.00
2013,09,26,17,02,17.90
2013,09,26,17,03,17.90
2013,09,26,17,04,17.90
2013,09,26,17,05,17.80
2013,09,26,17,06,17.80
2013,09,26,17,07,17.70
2013,09,26,17,08,17.70
2013,09,26,17,09,17.60
2013,09,26,17,10,17.60
2013,09,26,17,11,17.50
2013,09,26,17,12,17.50
2013,09,26,17,13,17.50
2013,09,26,17,14,17.40
2013,09,26,17,15,17.40
2013,09,26,17,16,17.40
2013,09,26,17,17,17.40
2013,09,26,17,18,17.40
2013,09,26,17,19,17.40
2013,09,26,17,20,17.40
2013,09,26,17,21,17.40
2013,09,26,17,22,17.40
2013,09,26,17,23,17.40
2013,09,26,17,24,17.40
2013,09,26,17,25,17.40
2013,09,26,17,26,17.30
2013,09,26,17,27,17.30
2013,09,26,17,28,17.30
2013,09,26,17,29,17.30
2013,09,26,17,30,17.20
2013,09,26,17,31,17.10
2013,09,26,17,32,17.00
2013,09,26,17,33,17.00
2013,09,26,17,34,16.90
2013,09,26,17,35,16.90
2013,09,26,17,36,16.80
2013,09,26,17,37,16.70
2013,09,26,17,38,16.70
2013,09,26,17,39,16.60
2013,09,26,17,40,16.60
2013,09,26,17,41,16.60
2013,09,26,17,42,16.50
2013,09,26,17,43,16.50
2013,09,26,17,44,16.40
2013,09,26,17,45,16.40
2013,09,26,17,46,16.40
2013,09,26,17,47,16.40
2013,09,26,17,48,16.30